{"data":{"norad_id":62076,"intl_designator":"2024-217V","name":"STARLINK-32617","alt_names":[],"object_type":"PAYLOAD","status":"ACTIVE","operator":null,"country":"US","launch_date":"2024-11-24","launch_site_code":"AFWTR","launch_vehicle":null,"mission":null,"orbit_class":"UNKNOWN","rcs_meters":null,"size_class":null,"mass_kg":null,"dimensions":null,"purposes":["comms"],"wikipedia_slug":null,"has_3d_model":false,"image_url":null,"decayed_at":null,"tle_current":{"epoch":"2026-05-24T20:26:35.163168Z","epoch_age_seconds":90958,"freshness":"FRESH","line1":"1 62076U 24217V   26144.85179587  .00019698  00000+0  67535-3 0  9995","line2":"2 62076  53.1593 187.2362 0001189  84.1961 275.9176 15.30203395 85265","mean_motion":15.30203395,"eccentricity":0.0001189,"inclination_deg":53.1593,"raan_deg":187.2362,"arg_perigee_deg":84.1961,"mean_anomaly_deg":275.9176,"bstar":0.00067535,"rev_number":8526,"period_min":94.105136918743,"perigee_km":474.39007022424,"apogee_km":476.0197949358,"semimajor_km":6853.34193258,"source":"CELESTRAK","updated_at":"2026-05-25T13:38:19.556487Z"}}}